{"data":{"norad_id":48974,"intl_designator":"2021-060H","name":"ONEWEB-0256","alt_names":[],"object_type":"PAYLOAD","status":"ACTIVE","operator":null,"country":"UK","launch_date":"2021-07-01","launch_site_code":"VOSTO","launch_vehicle":null,"mission":null,"orbit_class":"UNKNOWN","rcs_meters":null,"size_class":null,"mass_kg":null,"dimensions":null,"purposes":["comms"],"wikipedia_slug":null,"has_3d_model":false,"image_url":null,"decayed_at":null,"tle_current":{"epoch":"2026-09-20T03:25:14.132352Z","epoch_age_seconds":52776,"freshness":"FRESH","line1":"1 48974U 21060H   26263.14252468 -.00001425  00000+0 -37633-2 0  9999","line2":"2 48974  87.9153 209.9285 0001721  71.9100 288.2218 13.16582635252124","mean_motion":13.16582635,"eccentricity":0.0001721,"inclination_deg":87.9153,"raan_deg":209.9285,"arg_perigee_deg":71.91,"mean_anomaly_deg":288.2218,"bstar":-0.0037633,"rev_number":25212,"period_min":109.37406902682,"perigee_km":1196.4974316786,"apogee_km":1199.1050696244,"semimajor_km":7575.9382506515,"source":"CELESTRAK","updated_at":"2026-09-20T09:00:44.624319Z"}}}